Location: Unspecified
(52.4292°N, 19.3359°E)
Time: 17:21:09
(UTC+02:00)

Transit 2A Rocket - Pass Details

Date: 28 May 2024
Orbit: 583 x 910 km, 66.7° (Epoch: 14 June)

Event Time Altitude Azimuth Distance (km) Brightness Sun altitude
Rises 06:15:36 0° 277° (W) 3,162 7.6 13.3°
Reaches altitude 10° 06:18:25 10° 292° (WNW) 2,302 7.1 13.7°
Maximum altitude 06:22:32 22° 343° (NNW) 1,692 6.9 14.3°
Drops below altitude 10° 06:26:55 10° 34° (NE) 2,472 8.6 15.0°
Sets 06:30:04 0° 49° (NE) 3,458 9.6 15.4°
